Regional Weather Roundup
Issued by NWS

Home | Current Version | Previous Version | Graphics & Text | Print | Product List | Glossary On
Versions: 1 2 3 4 5 6 7 8 9 10 11 12 13 14 15 16 17 18 19 20 21 22 23 24 25 26 27 28 29 30 31 32 33 34 35 36 37 38 39 40 41 42 43 44 45 46 47 48 49 50
000
ASUS44 KMEG 040810
RWRTN
TENNESSEE HOURLY STATE WEATHER ROUNDUP
NATIONAL WEATHER SERVICE MEMPHIS TN
300 AM CDT WED MAY 04 2016

TNZ002-004-019-021-049-052-054-088>092-040900-
WEST TENNESSEE

CITY           SKY/WX    TMP DP  RH WIND       PRES   REMARKS
MEMPHIS INTL   CLEAR     54  49  83 W5        29.93F
NWS MEMPHIS      N/A     49 N/A N/A MISG        N/A
JACKSON        CLEAR     49  47  93 S3        29.91F
DYERSBURG      CLEAR     48  46  93 CALM      29.91F
UNION CITY     CLEAR     48  48 100 SW5       29.89F
LEXINGTON      CLEAR     46  46 100 CALM      29.89F
$$

TNZ008-025-027-028-033-062-065-066-040900-
NORTH MIDDLE TENNESSEE

CITY           SKY/WX    TMP DP  RH WIND       PRES   REMARKS
NASHVILLE      CLEAR     51  46  83 W3        29.88F
CLARKSVILLE    PTCLDY    49  45  86 W3        29.88F
SMYRNA         PTCLDY    49  46  89 CALM      29.89F
COOKEVILLE       N/A     45  45 100 CALM      29.85F VSB 3/4
CROSSVILLE     CLEAR     47  44  90 SW3       29.87F
$$

TNZ061-075-076-078-094-096-097-040900-
SOUTH MIDDLE TENNESSEE

CITY           SKY/WX    TMP DP  RH WIND       PRES   REMARKS
FAYETTEVILLE   CLEAR     50  48  93 CALM      29.89S
TULLAHOMA      CLEAR     46  46 100 NW6       29.89S
WINCHESTER     CLEAR     46  45  93 CALM      29.89F
MCMINNVILLE    CLEAR     46  46 100 SW3G30    29.88S
COLUMBIA       CLEAR    N/A N/A N/A CALM      29.88F
SHELBYVILLE    CLEAR     46  46 100 CALM      29.90S
$$

TNZ017-018-042-046-047-040900-
NORTHEAST TENNESSEE

CITY           SKY/WX    TMP DP  RH WIND       PRES   REMARKS
TRI CITIES     CLOUDY    55  45  68 NW6       29.80F
$$

TNZ012-013-036-069-073-074-040900-
CENTRAL EAST TENNESSEE

CITY           SKY/WX    TMP DP  RH WIND       PRES   REMARKS
KNOXVILLE      CLOUDY    56  49  77 W3        29.82F
OAK RIDGE      PTCLDY    54  47  77 CALM      29.85S
GATLINBURG     CLOUDY    54  48  82 CALM      29.82F
MORRISTOWN     CLOUDY    55  48  76 W6        29.81F
$$

TNZ083-085-099-040900-
SOUTHEAST TENNESSEE

CITY           SKY/WX    TMP DP  RH WIND       PRES   REMARKS
CHATTANOOGA    CLEAR     55  46  71 CALM      29.86F
$$

SKY/WX REPORTED AS FAIR MEANS FEW OR NO CLOUDS BELOW
12 THOUSAND FEET.





USA.gov is the U.S. government's official web portal to all federal, state and local government web resources and services.